Regional Weather Roundup
Issued by NWS Raleigh/Durham, NC

Current Version | Previous Version | Text Only | Print | Product List | Glossary On
Versions: 1 2 3 4 5 6 7 8 9 10 11 12 13 14 15 16 17 18 19 20 21 22 23 24 25 26 27 28
000
ASUS42 KRAH 251910
RWRRAH
NORTH CAROLINA WEATHER ROUNDUP
NATIONAL WEATHER SERVICE RALEIGH NC
300 PM EDT THU MAY 25 2017

NOTE: "FAIR" INDICATES FEW OR NO CLOUDS BELOW 12,000 FEET WITH NO
SIGNIFICANT WEATHER AND/OR OBSTRUCTIONS TO VISIBILITY.

NCZ001-053-055-056-065-067-252000-
WESTERN NORTH CAROLINA

CITY           SKY/WX    TMP DP  RH WIND       PRES   REMARKS
ASHEVILLE      CLOUDY    62  43  49 W12G21    29.70R
JEFFERSON      CLOUDY    52  46  80 W10G21    29.65R
HICKORY        CLOUDY    68  49  50 W12       29.62R
RUTHERFORDTON  CLOUDY    71  50  47 W8        29.66S
MOUNT AIRY     PTSUNNY   67  49  53 W5        29.60R
BOONE          DRIZZLE   54  46  76 W14G21    29.67S
$$

NCZ021-022-025-041-071-084-088-252000-
CENTRAL NORTH CAROLINA

CITY           SKY/WX    TMP DP  RH WIND       PRES   REMARKS
CHARLOTTE      PTSUNNY   72  51  47 SW12G20   29.63R
GREENSBORO     PTSUNNY   70  54  56 W18G26    29.56S
WINSTON-SALEM  PTSUNNY   72  48  42 W12G22    29.57S
RALEIGH-DURHAM PTSUNNY   71  54  54 W18G29    29.56R THUNDER
FORT BRAGG     PTSUNNY   75  51  42 W15G25    29.57S
FAYETTEVILLE   MOSUNNY   79  51  37 W24G31    29.58S
BURLINGTON     PTSUNNY   71  58  63 SW10      29.55F
LAURINBURG     MOSUNNY   77  54  44 SW21G29   29.61S
$$

NCZ011-015-027-028-043-044-047-080-103-252000-
NORTHEASTERN NORTH CAROLINA

CITY           SKY/WX    TMP DP  RH WIND       PRES   REMARKS
ROCKY MT-WILSO MOSUNNY   76  56  49 SW14G26   29.53F
GREENVILLE     PTSUNNY   73  55  53 SW13G18   29.57F
WASHINGTON     MOSUNNY   78  55  44 SW16G22   29.53F
ELIZABETH CITY PTSUNNY   78  62  57 SW17G26   29.51F
MANTEO         MOSUNNY   78  61  55 SW21G28   29.52F
CAPE HATTERAS  NOT AVBL
$$

NCZ078-087-090-091-093-098-101-252000-
SOUTHEASTERN NORTH CAROLINA

CITY           SKY/WX    TMP DP  RH WIND       PRES   REMARKS
LUMBERTON      MOSUNNY   74  53  48 W18G30    29.61R
GOLDSBORO      MOSUNNY   78  51  39 SW24G31   29.54F
KINSTON        MOSUNNY   72  61  68 S10       29.56F
KENANSVILLE    MOSUNNY   75  54  46 W10G24    29.58S
NEW BERN       PTSUNNY   75  52  44 SW15G24   29.57F THUNDER
CHERRY POINT   PTSUNNY   77  55  46 SW23G37   29.58F
BEAUFORT       SUNNY     77  62  59 SW29G40   29.60F
JACKSONVILLE   TSTM      69  63  81 S12       29.59R
WILMINGTON     CLOUDY    70  61  73 W13       29.62R
$$





USA.gov is the U.S. government's official web portal to all federal, state and local government web resources and services.